User: anonymous   Login
Location: New Plymouth
(39.0670°S, 174.0830°E)
Time: 19:04:09
(UTC+13:00)
Language:

ISS - Orbit

View from above orbital plane
View from above orbital plane
View from above satellite
View from above satellite

Ground track
Ground track

The orbit data is extracted from the following two-line orbital elements,

1 25544U 98067A   24057.03672454  .00024083  00000-0  43828-3 0  9994
2 25544  51.6431 151.1632 0005856 295.0520  63.5814 15.49354389441151
Epoch (UTC): 26 February 2024 00:52:53
Eccentricity: 0.0005856
inclination: 51.6431°
perigee height: 414 km
apogee height: 422 km
right ascension of ascending node: 151.1632°
argument of perigee: 295.0520°
revolutions per day: 15.49354389
mean anomaly at epoch: 63.5814°
orbit number at epoch: 44115

The dashed part of the orbit path shows where the satellite is in the earth's shadow,  

DLR